Regional Weather Roundup
Issued by NWS Newport/Morehead, NC

Current Version | Previous Version | Text Only | Print | Product List | Glossary On
Versions: 1 2 3 4 5 6 7 8 9 10 11 12 13 14 15 16 17 18 19 20 21 22 23 24 25 26 27 28 29 30 31 32 33 34 35 36 37 38 39 40 41 42 43 44 45 46 47 48 49 50
000 ASUS42 KMHX 052025 RWRMHX WEATHER ROUNDUP FOR EASTERN NORTH CAROLINA NATIONAL WEATHER SERVICE NEWPORT/MOREHEAD CITY NC 400 PM EDT SUN JUL 05 2015 NOTE: "FAIR" INDICATES FEW OR NO CLOUDS BELOW 12,000 FEET WITH NO SIGNIFICANT WEATHER AND/OR OBSTRUCTIONS TO VISIBILITY NCZ015>017-031-032-045>047-102-103-052100- NORTH COAST CITY SKY/WX TMP DP RH WIND PRES REMARKS EDENTON N/A 89 74 60 S8 30.08F ELIZABETH CITY MOSUNNY 84 75 74 E6 30.10F KITTY HAWK CLEAR 89 74 60 E8 30.10F MANTEO PTSUNNY 84 74 71 S14G21 30.11F $$ NCZ045>047-081-094-103-104-052100- CENTRAL COAST CITY SKY/WX TMP DP RH WIND PRES REMARKS FRISCO SUNNY 83 76 79 SW13 30.13F SWANQUARTER N/A 90 N/A N/A S12 30.06F $$ NCZ095-097-098-100-101-052100- SOUTHERN COAST CITY SKY/WX TMP DP RH WIND PRES REMARKS BEAUFORT SUNNY 84 76 76 SW17 30.12F CEDAR ISLAND N/A 90 N/A N/A S9G20 30.15S JACKSONVILLE SUNNY 88 72 58 S13 30.10F PINEY ISLAND CLEAR N/A N/A N/A S14G21 30.11F WILMINGTON SUNNY 89 70 53 SW14G21 30.10F $$ NCZ011>013-027>030-043-044-078>080-089-090>093-098-052100- COASTAL PLAIN CITY SKY/WX TMP DP RH WIND PRES REMARKS AHOSKIE MOSUNNY N/A N/A N/A E9 30.08F CLINTON MOSUNNY 91 71 52 S6 30.08F ELIZABETHTOWN MOSUNNY 91 69 49 S6 30.08F GOLDSBORO MOSUNNY 89 71 55 S8 30.06F GREENVILLE MOSUNNY 90 70 51 SW9 30.09F HAVELOCK SUNNY 89 69 51 S10G18 30.12F KENANSVILLE MOSUNNY 90 67 46 S6 30.09F KINSTON MOSUNNY 91 70 49 S12 30.09F NEW BERN SUNNY 90 71 53 S10G20 30.11F RICHLANDS PTSUNNY 90 70 51 S15 30.08F ROCKY MOUNT MOSUNNY 91 71 51 VRB7 30.06F WASHINGTON MOSUNNY 88 72 58 S7 30.08F WHITEVILLE MOSUNNY 88 73 59 S8 30.09F $$ AMZ130-135-150-152-154-156-158-170-250-252-270-ANZ085-086-088-633-658-670-052100- MARINE OBSERVATIONS STATION/POSITION TIME TEMP WIND PRES WAVE SWELL AIR SEA DIR/SP/G HT/PER HT/PER (UTC) (F) (DEG/KT/KT) (MB) (FT/S) (FT/S) CHESAPEAKE LIGHT 2000 76 100/ 9/ 10 1020.5 64 E VA BEACH 1950 78 78 140/ 4/ 6 1019.9 4/ 7 3/ 7 DUCK 2000 81 80 120/ 11/ 12 N/A 2 E DUCK 1911 80 N/A 2/14 OREGON INLET 2000 82 76 190/ 15/ 17 1019.5 13E OREGON INLT 1900 80 N/A 3/ 6 HATTERAS CG 2000 82 80 200/ 9/ 12 1019.8 DIAMOND BUOY 1950 81 82 210/ 14/ 16 1020.1 3/ 4 2/ 8 CAPE LOOKOUT 2000 82 210/ 14/ 16 1019.8 BEAUFORT LAB 2000 82 81 200/ 14/ 17 1019.3 30 SE NEW RVR IN NOT AVBL 27 SE WRIGHTSVLE 2000 81 210/ 12/ 14 N/A 5 SE WRIGHTSVLE 1908 80 80 200/ 14/ 17 1020.5 225 S CAPE HAT 1950 80 80 190/ 10/ 12 1023.0 4/ 9 3/ 9 41 SE CHARLESTON 1950 81 83 180/ 16/ 17 1019.8 3/ 9 2/ 9 $$

USA.gov is the U.S. government's official web portal to all federal, state and local government web resources and services.